Weather Roundup
Issued by NWS Springfield, MO

Home | Current Version | Previous Version | Text Only | Print | Product List | Glossary On
Versions: 1 2 3 4 5 6 7 8 9 10 11 12 13 14 15 16 17 18 19 20 21 22 23 24 25 26 27 28 29 30 31 32 33 34 35 36 37 38 39 40 41 42 43 44 45 46 47 48 49 50
000
NZUS99 KSGF 182359
HRRSGF

HOURLY WEATHER
NATIONAL WEATHER SERVICE SPRINGFIELD MO
600 PM CST THU DEC 18 2014

......SGF CWA......

CITY           SKY/WX    TMP DP  RH WIND       PRES   REMARKS
SPRINGFIELD    CLOUDY    38  36  92 N6        30.17R WCI  33
6HR MIN TEMP:  36; 6HR MAX TEMP:  39;

JOPLIN         CLOUDY    38  36  92 CALM      30.19R
6HR MIN TEMP:  38; 6HR MAX TEMP:  39;

WEST PLAINS    CLOUDY    37  33  85 E3        30.18R
6HR MIN TEMP:  35; 6HR MAX TEMP:  37;

ROLLA          CLOUDY    33  31  92 E5        30.18R FOG     WCI  29
6HR MIN TEMP:  32; 6HR MAX TEMP:  33; 6HR PCP: TRACE;

OSAGE BEACH    CLOUDY    36  32  87 E3        30.20S VSB 3/4
BRANSON        CLOUDY    37  37 100 CALM      30.18R FOG

......SURROUNDING SGF CWA......

CITY           SKY/WX    TMP DP  RH WIND       PRES   REMARKS
CHANUTE        CLOUDY    34  33  96 N5        30.20R WCI  30
PARSONS        CLOUDY    36  35  96 N5        30.21R WCI  32
COFFEYVILLE    CLOUDY    38  35  89 N6        30.20S WCI  33
EMPORIA        CLOUDY    32  30  92 CALM      30.19R
SILOAM SPRINGS CLOUDY    39  34  81 N5        30.19R
HARRISON AR    CLOUDY    39  38  96 CALM      30.17R
NEAR YELLVILLE CLOUDY    39  34  81 CALM      30.19R

......KANSAS AND MISSOURI......

CITY           SKY/WX    TMP DP  RH WIND       PRES   REMARKS
KANSAS CTY INT CLOUDY    32  29  88 NE7       30.21S WCI  26
DOWNTOWN KC    CLOUDY    33  29  85 NE6       30.22R WCI  28
COLUMBIA       CLOUDY    33  30  88 E6        30.22R WCI  28
SEDALIA        CLOUDY    34  31  88 E3        30.22R
ST JOSEPH      CLOUDY    31  28  89 NE5       30.24R WCI  26
ST LOUIS       CLOUDY    35  26  69 NE7       30.25R WCI  29
SPIRIT OF STL  CLOUDY    34  29  82 CALM      30.25R HAZE
KIRKSVILLE     CLOUDY    30  27  88 NE6       30.25R WCI  24
WICHITA        CLOUDY    34  29  82 N7        30.19R WCI  28
TOPEKA         CLOUDY    33  29  85 NE5       30.22R WCI  29
OLATHE         CLOUDY    33  30  88 E5        30.20R WCI  29

......TENNESSEE......

CITY           SKY/WX    TMP DP  RH WIND       PRES   REMARKS
MEMPHIS        CLOUDY    45  36  70 NE5       30.20R
NASHVILLE      CLOUDY    38  31  76 NE3       30.23R

......ARKANSAS.......

CITY           SKY/WX    TMP DP  RH WIND       PRES   REMARKS
FAYETTEVILLE   CLOUDY    39  38  96 CALM      30.17R
FT SMITH       CLOUDY    41  38  89 E5        30.19R
LITTLE ROCK    CLOUDY    42  38  85 NE7       30.21R FOG

......OKLAHOMA.......

CITY           SKY/WX    TMP DP  RH WIND       PRES   REMARKS
TULSA          CLOUDY    41  39  93 N6        30.19R
PONCA CITY     CLOUDY    38  35  89 NE6       30.19R WCI  33
MCALESTER      CLOUDY    44  41  89 NE5       30.17R
OKLAHOMA CITY  DRIZZLE   43  39  86 N7        30.16R FOG

......IOWA............

CITY           SKY/WX    TMP DP  RH WIND       PRES   REMARKS
DES MOINES     CLOUDY    29  21  72 SE6       30.25S WCI  23
QUAD CITIES    CLOUDY    26  17  68 N5        30.28R WCI  20

......ILLINOIS........

CITY           SKY/WX    TMP DP  RH WIND       PRES   REMARKS
QUINCY         CLOUDY    28  23  81 NE7       30.26R WCI  21
CHICAGO        CLOUDY    28  19  69 N7        30.24R WCI  21




USA.gov is the U.S. government's official web portal to all federal, state and local government web resources and services.